sat.trackr.live / text

‹ back to catalog

2025-313A

NORAD 67248 · 2025-313A

PAYLOAD ACTIVE UNKNOWN

§ Identity

Operator
Country
TBD
Launch date
2025-12-28
Launch site
VOSTO
Launch vehicle
Mass (kg)
RCS (m²)

External: N2YO · Heavens-Above · Gunter

§ Orbital elements

Epoch: 2026-09-20T20:45:39.497472Z

Period
98.13 min
Inclination
97.5327°
Eccentricity
0.0277493
Mean motion
14.67465109 rev/d
Perigee alt
473.6 km
Apogee alt
864.7 km
Semi-major
7,047.3 km
B*
7.5616e-5
RAAN
320.7578°
Arg perigee
29.5272°
Mean anomaly
332.1286°
Rev number
3,905

§ Raw data

2025-313A1 67248U 25313A   26263.86504048  .00000707  00000+0  75616-4 0  99972 67248  97.5327 320.7578 0277493  29.5272 332.1286 14.67465109 39058

JSON: /api/v1/satellites/67248 · /tle

For live sub-satellite position, see the globe view (requires WebGL).

§ Visibility from observer

Set your observer location to see the next 7 days of passes ≥ 10°. The values pass through the URL so the page stays shareable.

No JS? Fill the form by hand. The geolocation button needs JavaScript.